Location: Unspecified
(0.0000°N, 0.0000°E)
Time: 04:59:49
(UTC+00:00)

XW-2F - Pass Details

Date: 13 December 2017
Orbit: 507 x 528 km, 97.5° (Epoch: 19 January)

Event Time Altitude Azimuth Distance (km) Brightness Sun altitude
Rises 05:18:13 0° 28° (NNE) 2,644 ? -8.3°
Reaches altitude 10° 05:20:30 10° 39° (NE) 1,756 ? -7.7°
Maximum altitude 05:23:51 30° 101° (E) 947 ? -7.0°
Drops below altitude 10° 05:27:12 10° 164° (SSE) 1,754 ? -6.2°
Sets 05:29:28 0° 174° (S) 2,641 ? -5.7°
